User: anonymous   Login
Location: *
(46.0770°N, 1.6444°E)
Time: 08:42:47
(UTC+00:00)
Language:

In-Cosmos 22 - Orbit

View from above orbital plane
View from above orbital plane
View from above satellite
View from above satellite

Ground track
Ground track

The orbit data is extracted from the following two-line orbital elements,

1 12645U 81075A   19323.80710928 -.00000033 +00000-0 -21327-4 0  9999
2 12645 081.2192 064.9267 0062762 256.1292 103.2896 14.18361005979617
Epoch (UTC): 19 November 2019 19:22:14
Eccentricity: 0.0062762
inclination: 81.2192°
perigee height: 785 km
apogee height: 876 km
right ascension of ascending node: 64.9267°
argument of perigee: 256.1292°
revolutions per day: 14.18361005
mean anomaly at epoch: 103.2896°
orbit number at epoch: 97961

The dashed part of the orbit path shows where the satellite is in the earth's shadow,  

DLR